TAM4773 SBCF-SBVT

Flight info

Callsign TAM4773
Flight time 0h 38m
Altitude 31000
Route EVPAD UZ35 KIGOK
Aircraft A319/M-SDE3FGHIRWY/LB1

Departure

Time 2026-04-26 13:30
Airport Tancredo Neves International Airport (SBCF)

Arrival

Time 2026-04-26 14:09
Airport Eurico de Aguiar Salles International Airport (SBVT)
Time Latitude Longitude Altitude Speed Heading
2026-04-26 13:16 -19.62956 -43.96703 2814 ft 0 kts 52°
2026-04-26 13:17 -19.63011 -43.96647 2816 ft 0 kts 64°
2026-04-26 13:23 -19.63023 -43.96667 2814 ft 4 kts 41°
2026-04-26 13:23 -19.63042 -43.96676 2815 ft 4 kts 334°
2026-04-26 13:23 -19.63049 -43.96672 2813 ft 0 kts 319°
2026-04-26 13:26 -19.63047 -43.96674 2813 ft 2 kts 319°
2026-04-26 13:26 -19.63030 -43.96691 2815 ft 5 kts 317°
2026-04-26 13:26 -19.63013 -43.96741 2811 ft 9 kts 261°
2026-04-26 13:26 -19.62997 -43.96811 2814 ft 12 kts 317°
2026-04-26 13:27 -19.62930 -43.96876 2813 ft 15 kts 317°
2026-04-26 13:27 -19.62847 -43.96957 2810 ft 17 kts 317°
2026-04-26 13:27 -19.62822 -43.97071 2814 ft 18 kts 239°
2026-04-26 13:27 -19.62793 -43.97179 2809 ft 18 kts 316°
2026-04-26 13:28 -19.62694 -43.97273 2809 ft 20 kts 317°
2026-04-26 13:28 -19.62586 -43.97373 2809 ft 22 kts 319°
2026-04-26 13:28 -19.62461 -43.97490 2808 ft 26 kts 319°
2026-04-26 13:28 -19.62315 -43.97624 2805 ft 23 kts 318°
2026-04-26 13:29 -19.62313 -43.97725 2807 ft 15 kts 225°
2026-04-26 13:29 -19.62366 -43.97781 2806 ft 11 kts 213°
2026-04-26 13:29 -19.62416 -43.97760 2805 ft 0 kts 138°
2026-04-26 13:29 -19.62513 -43.97669 2806 ft 49 kts 139°
2026-04-26 13:30 -19.62925 -43.97288 2814 ft 108 kts 139°
2026-04-26 13:30 -19.63625 -43.96641 2811 ft 157 kts 139°
2026-04-26 13:30 -19.64503 -43.95831 3187 ft 169 kts 137°
2026-04-26 13:30 -19.65397 -43.95007 3801 ft 171 kts 138°
2026-04-26 13:31 -19.66322 -43.94152 4079 ft 186 kts 138°
2026-04-26 13:31 -19.67356 -43.93195 4277 ft 209 kts 139°
2026-04-26 13:31 -19.68516 -43.92122 4450 ft 234 kts 139°
2026-04-26 13:31 -19.69811 -43.90925 4801 ft 259 kts 139°
2026-04-26 13:32 -19.71108 -43.89500 5353 ft 277 kts 122°
2026-04-26 13:32 -19.71838 -43.87588 6203 ft 282 kts 105°
2026-04-26 13:32 -19.72382 -43.85576 7103 ft 284 kts 106°
2026-04-26 13:32 -19.72924 -43.83563 8046 ft 283 kts 106°
2026-04-26 13:33 -19.73467 -43.81540 8962 ft 285 kts 106°
2026-04-26 13:33 -19.74004 -43.79542 9845 ft 286 kts 107°
2026-04-26 13:33 -19.74557 -43.77490 10400 ft 298 kts 107°
2026-04-26 13:33 -19.75152 -43.75291 10608 ft 321 kts 107°
2026-04-26 13:34 -19.75789 -43.72930 10818 ft 340 kts 107°
2026-04-26 13:34 -19.76448 -43.70474 11307 ft 348 kts 107°
2026-04-26 13:34 -19.77117 -43.67982 11858 ft 354 kts 107°
2026-04-26 13:34 -19.77563 -43.66313 12239 ft 357 kts 107°
2026-04-26 13:35 -19.78470 -43.62920 12970 ft 363 kts 107°
2026-04-26 13:35 -19.79168 -43.60312 13511 ft 368 kts 107°
2026-04-26 13:35 -19.79874 -43.57679 13999 ft 373 kts 107°
2026-04-26 13:35 -19.80589 -43.55012 14456 ft 377 kts 107°
2026-04-26 13:36 -19.81310 -43.52313 14910 ft 382 kts 106°
2026-04-26 13:36 -19.82036 -43.49585 15361 ft 386 kts 106°
2026-04-26 13:36 -19.82770 -43.46822 15826 ft 389 kts 106°
2026-04-26 13:36 -19.83511 -43.44043 16284 ft 393 kts 106°
2026-04-26 13:37 -19.84262 -43.41236 16738 ft 396 kts 106°
2026-04-26 13:37 -19.85012 -43.38442 17176 ft 400 kts 106°
2026-04-26 13:37 -19.85778 -43.35581 17629 ft 405 kts 105°
2026-04-26 13:37 -19.86551 -43.32687 18079 ft 408 kts 105°
2026-04-26 13:38 -19.87325 -43.29766 18503 ft 412 kts 105°
2026-04-26 13:38 -19.88106 -43.26822 18914 ft 415 kts 105°
2026-04-26 13:38 -19.88894 -43.23864 19354 ft 417 kts 106°
2026-04-26 13:38 -19.89690 -43.20891 19803 ft 420 kts 106°
2026-04-26 13:39 -19.90492 -43.17895 20230 ft 422 kts 106°
2026-04-26 13:39 -19.91293 -43.14885 20669 ft 424 kts 106°
2026-04-26 13:39 -19.92095 -43.11856 21097 ft 426 kts 106°
2026-04-26 13:39 -19.92889 -43.08851 21491 ft 428 kts 105°
2026-04-26 13:40 -19.93682 -43.05797 21843 ft 430 kts 105°
2026-04-26 13:40 -19.94474 -43.02718 22205 ft 432 kts 105°
2026-04-26 13:40 -19.95270 -42.99623 22565 ft 435 kts 105°
2026-04-26 13:40 -19.96066 -42.96515 22932 ft 437 kts 105°
2026-04-26 13:41 -19.96867 -42.93383 23292 ft 439 kts 105°
2026-04-26 13:41 -19.97391 -42.90178 23632 ft 442 kts 95°
2026-04-26 13:41 -19.97658 -42.86911 23918 ft 444 kts 95°
2026-04-26 13:41 -19.97914 -42.83677 24209 ft 445 kts 95°
2026-04-26 13:42 -19.98170 -42.80386 24504 ft 447 kts 95°
2026-04-26 13:42 -19.98427 -42.77085 24789 ft 449 kts 95°
2026-04-26 13:42 -19.98686 -42.73770 25074 ft 451 kts 95°
2026-04-26 13:42 -19.98950 -42.70438 25361 ft 452 kts 95°
2026-04-26 13:43 -19.99216 -42.67100 25639 ft 454 kts 95°
2026-04-26 13:43 -19.99480 -42.63741 25923 ft 456 kts 95°
2026-04-26 13:43 -19.99739 -42.60370 26210 ft 458 kts 95°
2026-04-26 13:43 -20.00000 -42.56989 26490 ft 460 kts 95°
2026-04-26 13:44 -20.00264 -42.53586 26766 ft 462 kts 95°
2026-04-26 13:44 -20.00595 -42.50185 27047 ft 463 kts 97°
2026-04-26 13:44 -20.01045 -42.46785 27312 ft 465 kts 99°
2026-04-26 13:44 -20.01573 -42.43425 27587 ft 467 kts 101°
2026-04-26 13:45 -20.02146 -42.40018 27866 ft 469 kts 101°
2026-04-26 13:45 -20.02723 -42.36593 28135 ft 470 kts 101°
2026-04-26 13:45 -20.03279 -42.33157 28417 ft 472 kts 100°
2026-04-26 13:45 -20.03814 -42.29709 28688 ft 473 kts 100°
2026-04-26 13:46 -20.04336 -42.26234 28958 ft 475 kts 99°
2026-04-26 13:46 -20.04848 -42.22756 29217 ft 477 kts 99°
2026-04-26 13:46 -20.05357 -42.19257 29482 ft 479 kts 100°
2026-04-26 13:46 -20.05904 -42.15799 29719 ft 481 kts 101°
2026-04-26 13:47 -20.06517 -42.12294 29961 ft 482 kts 102°
2026-04-26 13:47 -20.07169 -42.08783 30205 ft 484 kts 102°
2026-04-26 13:47 -20.07840 -42.05257 30411 ft 485 kts 102°
2026-04-26 13:47 -20.08504 -42.01737 30709 ft 484 kts 102°
2026-04-26 13:48 -20.09155 -41.98213 30979 ft 484 kts 102°
2026-04-26 13:48 -20.10410 -41.91210 31078 ft 482 kts 102°
2026-04-26 13:49 -20.11616 -41.84309 30356 ft 470 kts 102°
2026-04-26 13:49 -20.12216 -41.80890 29180 ft 470 kts 102°
2026-04-26 13:49 -20.12822 -41.77472 27913 ft 471 kts 101°
2026-04-26 13:49 -20.13422 -41.74077 26982 ft 463 kts 101°
2026-04-26 13:50 -20.14018 -41.70726 26072 ft 457 kts 101°
2026-04-26 13:50 -20.14604 -41.67419 25296 ft 454 kts 101°
2026-04-26 13:50 -20.15187 -41.64127 24751 ft 450 kts 101°
2026-04-26 13:50 -20.15764 -41.60870 24196 ft 446 kts 101°
2026-04-26 13:51 -20.16330 -41.57676 23652 ft 442 kts 101°
2026-04-26 13:51 -20.16897 -41.54466 22958 ft 440 kts 101°
2026-04-26 13:51 -20.17461 -41.51269 22322 ft 437 kts 101°
2026-04-26 13:51 -20.18019 -41.48103 21739 ft 433 kts 101°
2026-04-26 13:52 -20.18573 -41.44956 21158 ft 430 kts 101°
2026-04-26 13:52 -20.19122 -41.41830 20610 ft 427 kts 100°
2026-04-26 13:52 -20.19656 -41.38772 20098 ft 424 kts 101°
2026-04-26 13:52 -20.20191 -41.35694 19574 ft 421 kts 101°
2026-04-26 13:53 -20.20724 -41.32635 19051 ft 418 kts 101°
2026-04-26 13:53 -20.21250 -41.29605 18553 ft 415 kts 100°
2026-04-26 13:53 -20.21773 -41.26590 17992 ft 412 kts 101°
2026-04-26 13:53 -20.22294 -41.23604 17425 ft 408 kts 101°
2026-04-26 13:54 -20.22807 -41.20676 16889 ft 404 kts 101°
2026-04-26 13:54 -20.23321 -41.17741 16324 ft 401 kts 101°
2026-04-26 13:54 -20.23825 -41.14835 15783 ft 397 kts 101°
2026-04-26 13:55 -20.24818 -41.09120 14706 ft 389 kts 101°
2026-04-26 13:55 -20.25141 -41.07250 14373 ft 386 kts 101°
2026-04-26 13:55 -20.26252 -41.00766 13146 ft 375 kts 102°
2026-04-26 13:56 -20.26719 -40.98054 12625 ft 369 kts 102°
2026-04-26 13:56 -20.27181 -40.95384 12130 ft 363 kts 101°
2026-04-26 13:56 -20.27633 -40.92760 11603 ft 358 kts 102°
2026-04-26 13:56 -20.28079 -40.90171 11211 ft 350 kts 102°
2026-04-26 13:57 -20.28509 -40.87676 11087 ft 335 kts 102°
2026-04-26 13:57 -20.28914 -40.85313 10967 ft 321 kts 102°
2026-04-26 13:57 -20.29307 -40.83019 10843 ft 308 kts 102°
2026-04-26 13:57 -20.29682 -40.80831 10573 ft 294 kts 102°
2026-04-26 13:58 -20.30046 -40.78710 10165 ft 288 kts 102°
2026-04-26 13:58 -20.30406 -40.76617 10039 ft 286 kts 102°
2026-04-26 13:58 -20.30644 -40.75238 10041 ft 286 kts 102°
2026-04-26 13:58 -20.31001 -40.73142 9978 ft 287 kts 102°
2026-04-26 13:59 -20.31474 -40.70363 9195 ft 287 kts 102°
2026-04-26 13:59 -20.31830 -40.68270 8568 ft 286 kts 102°
2026-04-26 13:59 -20.32071 -40.66864 8230 ft 284 kts 102°
2026-04-26 14:00 -20.33122 -40.60716 7446 ft 281 kts 102°
2026-04-26 14:00 -20.33470 -40.58664 7228 ft 281 kts 102°
2026-04-26 14:00 -20.33706 -40.57280 7087 ft 281 kts 102°
2026-04-26 14:01 -20.34168 -40.54564 6785 ft 281 kts 101°
2026-04-26 14:01 -20.34515 -40.52519 6558 ft 279 kts 101°
2026-04-26 14:01 -20.34861 -40.50478 6342 ft 280 kts 102°
2026-04-26 14:01 -20.35289 -40.48446 6114 ft 279 kts 112°
2026-04-26 14:02 -20.36145 -40.46606 5877 ft 277 kts 126°
2026-04-26 14:02 -20.37356 -40.45014 5610 ft 276 kts 132°
2026-04-26 14:02 -20.38589 -40.43475 5364 ft 276 kts 131°
2026-04-26 14:02 -20.39829 -40.41918 5110 ft 275 kts 131°
2026-04-26 14:03 -20.41067 -40.40358 4862 ft 275 kts 131°
2026-04-26 14:03 -20.42306 -40.38795 4600 ft 274 kts 131°
2026-04-26 14:03 -20.43448 -40.37182 4349 ft 270 kts 120°
2026-04-26 14:03 -20.44102 -40.35345 4111 ft 269 kts 102°
2026-04-26 14:04 -20.44215 -40.33357 3845 ft 268 kts 84°
2026-04-26 14:04 -20.43961 -40.31418 3584 ft 258 kts 81°
2026-04-26 14:04 -20.43716 -40.29569 3342 ft 246 kts 82°
2026-04-26 14:04 -20.43436 -40.27825 3110 ft 233 kts 71°
2026-04-26 14:05 -20.42563 -40.26438 2889 ft 224 kts 36°
2026-04-26 14:05 -20.41191 -40.25798 2681 ft 213 kts
2026-04-26 14:05 -20.39739 -40.25901 2488 ft 208 kts 349°
2026-04-26 14:05 -20.38316 -40.26122 2259 ft 204 kts 351°
2026-04-26 14:06 -20.36927 -40.26330 2078 ft 198 kts 349°
2026-04-26 14:06 -20.35599 -40.26525 1878 ft 190 kts 350°
2026-04-26 14:06 -20.34338 -40.26710 1674 ft 177 kts 349°
2026-04-26 14:06 -20.33150 -40.26884 1403 ft 165 kts 351°
2026-04-26 14:07 -20.32057 -40.27043 1199 ft 150 kts 351°
2026-04-26 14:07 -20.31064 -40.27187 979 ft 140 kts 351°
2026-04-26 14:07 -20.30108 -40.27327 794 ft 136 kts 351°
2026-04-26 14:07 -20.29177 -40.27465 584 ft 133 kts 351°
2026-04-26 14:08 -20.28262 -40.27609 370 ft 130 kts 353°
2026-04-26 14:08 -20.27358 -40.27739 180 ft 133 kts 353°
2026-04-26 14:08 -20.26447 -40.27870 44 ft 129 kts 353°
2026-04-26 14:08 -20.25682 -40.27983 28 ft 89 kts 352°
2026-04-26 14:09 -20.25277 -40.28044 23 ft 14 kts 351°
2026-04-26 14:09 -20.25255 -40.28118 22 ft 16 kts 221°
2026-04-26 14:09 -20.25354 -40.28185 22 ft 18 kts 210°
2026-04-26 14:09 -20.25479 -40.28190 25 ft 19 kts 171°
2026-04-26 14:10 -20.25612 -40.28172 24 ft 20 kts 173°
2026-04-26 14:10 -20.25751 -40.28150 29 ft 21 kts 172°
2026-04-26 14:10 -20.25896 -40.28129 27 ft 22 kts 171°
2026-04-26 14:10 -20.26048 -40.28106 29 ft 23 kts 172°
2026-04-26 14:11 -20.26366 -40.28061 32 ft 23 kts 172°
2026-04-26 14:11 -20.26447 -40.28077 32 ft 9 kts 244°
2026-04-26 14:11 -20.26460 -40.28147 32 ft 10 kts 263°
2026-04-26 14:12 -20.26464 -40.28178 32 ft 0 kts 263°